When you browse on this site, cookies collect data to enhance your experience and personalize the content and advertising you see.
Visit our Privacy Policy to learn more. By continuing to use the site, you agree to this use of cookies and data.
  • In Hungary
  • List of Countries
  • For 7 days
  • Water Temperature
  • Satellite Maps
  • Weather Map
  • News
  • Weather Widgets
  • user-avatar
    Login

    Hourly Weather Biatris

    Today, 18 November, Sunday

    Time Temperature Precipitation Wind Pressure Humidity
    00:00 +25°C° 0 mm 2 mps 654 mmHg 44%
    01:00 +24°C° 0 mm 2 mps 654 mmHg 49%
    02:00 +21°C° 0 mm 2 mps 653 mmHg 59%
    03:00 +21°C° 0 mm 2 mps 653 mmHg 62%
    04:00 +21°C° 0 mm 2 mps 653 mmHg 65%
    05:00 +20°C° 0 mm 2 mps 653 mmHg 68%
    06:00 +24°C° 0 mm 3 mps 654 mmHg 60%
    07:00 +26°C° 0 mm 3 mps 655 mmHg 53%
    08:00 +29°C° 0 mm 3 mps 656 mmHg 45%
    09:00 +31°C° 0 mm 3 mps 656 mmHg 37%
    10:00 +34°C° 0 mm 3 mps 656 mmHg 29%
    11:00 +36°C° 0 mm 2 mps 656 mmHg 22%
    12:00 +35°C° 0 mm 2 mps 655 mmHg 21%
    13:00 +35°C° 0 mm 2 mps 655 mmHg 20%
    14:00 +34°C° 0 mm 2 mps 654 mmHg 24%
    15:00 +34°C° 0 mm 2 mps 654 mmHg 24%
    16:00 +32°C° 0 mm 2 mps 653 mmHg 25%
    17:00 +32°C° 0 mm 2 mps 653 mmHg 26%
    18:00 +30°C° 0.4 mm 2 mps 653 mmHg 31%
    19:00 +28°C° 0.4 mm 2 mps 654 mmHg 37%
    20:00 +27°C° 0.4 mm 2 mps 654 mmHg 43%
    21:00 +26°C° 0 mm 3 mps 654 mmHg 46%
    22:00 +25°C° 0 mm 3 mps 654 mmHg 49%
    23:00 +24°C° 0 mm 3 mps 654 mmHg 52%

    Tomorrow, 19 November, Monday

    Time Temperature Precipitation Wind Pressure Humidity
    00:00 +22°C° 0 mm 3 mps 654 mmHg 56%
    01:00 +21°C° 0 mm 3 mps 654 mmHg 60%
    02:00 +20°C° 0 mm 3 mps 653 mmHg 64%
    03:00 +20°C° 0 mm 2 mps 653 mmHg 69%
    04:00 +19°C° 0 mm 2 mps 653 mmHg 73%
    05:00 +18°C° 0 mm 2 mps 653 mmHg 77%
    06:00 +21°C° 0 mm 3 mps 654 mmHg 65%
    07:00 +24°C° 0 mm 3 mps 655 mmHg 54%
    08:00 +26°C° 0 mm 4 mps 656 mmHg 42%
    09:00 +28°C° 0 mm 4 mps 657 mmHg 34%
    10:00 +30°C° 0 mm 4 mps 657 mmHg 26%
    11:00 +33°C° 0 mm 4 mps 657 mmHg 18%
    12:00 +34°C° 0 mm 4 mps 657 mmHg 16%
    13:00 +35°C° 0 mm 4 mps 656 mmHg 15%
    14:00 +36°C° 0 mm 4 mps 655 mmHg 13%
    15:00 +35°C° 0 mm 4 mps 655 mmHg 14%
    16:00 +34°C° 0 mm 4 mps 654 mmHg 14%
    17:00 +34°C° 0 mm 4 mps 654 mmHg 15%
    18:00 +30°C° 0 mm 4 mps 654 mmHg 19%
    19:00 +28°C° 0 mm 3 mps 654 mmHg 22%
    20:00 +25°C° 0 mm 3 mps 654 mmHg 26%
    21:00 +24°C° 0 mm 3 mps 654 mmHg 31%
    22:00 +22°C° 0 mm 3 mps 654 mmHg 36%
    23:00 +21°C° 0 mm 3 mps 654 mmHg 41%

    Day after tomorrow, 20 November, Tuesday

    Time Temperature Precipitation Wind Pressure Humidity
    00:00 +21°C° 0 mm 2 mps 654 mmHg 46%
    01:00 +20°C° 0 mm 2 mps 653 mmHg 50%
    02:00 +19°C° 0 mm 2 mps 653 mmHg 55%
    03:00 +19°C° 0 mm 2 mps 652 mmHg 59%
    04:00 +18°C° 0 mm 2 mps 652 mmHg 62%
    05:00 +17°C° 0 mm 2 mps 652 mmHg 66%
    06:00 +20°C° 0 mm 2 mps 653 mmHg 55%
    07:00 +24°C° 0 mm 2 mps 654 mmHg 44%
    08:00 +27°C° 0 mm 2 mps 655 mmHg 34%
    09:00 +30°C° 0 mm 2 mps 656 mmHg 27%
    10:00 +32°C° 0 mm 2 mps 656 mmHg 20%
    11:00 +36°C° 0 mm 2 mps 657 mmHg 13%
    12:00 +37°C° 0 mm 2 mps 656 mmHg 12%
    13:00 +38°C° 0 mm 2 mps 655 mmHg 10%
    14:00 +39°C° 0 mm 2 mps 654 mmHg 9%
    15:00 +38°C° 0 mm 2 mps 654 mmHg 9%
    16:00 +37°C° 0 mm 2 mps 653 mmHg 10%
    17:00 +36°C° 0 mm 3 mps 652 mmHg 10%
    18:00 +33°C° 0 mm 3 mps 652 mmHg 13%
    19:00 +30°C° 0 mm 3 mps 652 mmHg 16%
    20:00 +27°C° 0 mm 3 mps 652 mmHg 19%
    21:00 +26°C° 0 mm 3 mps 652 mmHg 21%
    22:00 +26°C° 0 mm 4 mps 653 mmHg 22%
    23:00 +25°C° 0 mm 4 mps 653 mmHg 24%

    21 November, Wednesday

    Time Temperature Precipitation Wind Pressure Humidity
    00:00 +23°C° 0 mm 4 mps 652 mmHg 26%
    01:00 +24°C° 0 mm 3 mps 652 mmHg 28%
    02:00 +22°C° 0 mm 3 mps 651 mmHg 29%
    03:00 +21°C° 0 mm 3 mps 651 mmHg 33%
    04:00 +21°C° 0 mm 3 mps 651 mmHg 37%
    05:00 +20°C° 0 mm 2 mps 651 mmHg 40%
    06:00 +24°C° 0 mm 3 mps 652 mmHg 37%
    07:00 +27°C° 0 mm 3 mps 653 mmHg 34%
    08:00 +29°C° 0 mm 4 mps 654 mmHg 31%
    09:00 +34°C° 0 mm 3 mps 655 mmHg 25%
    10:00 +37°C° 0 mm 2 mps 655 mmHg 20%
    11:00 +40°C° 0 mm 1 mps 656 mmHg 15%
    12:00 +40°C° 0 mm 1 mps 655 mmHg 14%
    13:00 +39°C° 0 mm 1 mps 654 mmHg 14%
    14:00 +39°C° 0 mm 1 mps 652 mmHg 13%
    15:00 +37°C° 0 mm 1 mps 652 mmHg 14%
    16:00 +36°C° 0 mm 1 mps 651 mmHg 15%
    17:00 +35°C° 0 mm 1 mps 651 mmHg 15%
    18:00 +33°C° 0 mm 1 mps 651 mmHg 17%
    19:00 +31°C° 0 mm 1 mps 651 mmHg 19%
    20:00 +29°C° 0 mm 1 mps 652 mmHg 20%
    21:00 +29°C° 0 mm 2 mps 652 mmHg 21%
    22:00 +28°C° 0 mm 2 mps 652 mmHg 22%
    23:00 +28°C° 0 mm 3 mps 652 mmHg 23%

    22 November, Thursday

    Time Temperature Precipitation Wind Pressure Humidity
    00:00 +27°C° 0 mm 2 mps 652 mmHg 25%
    01:00 +27°C° 0 mm 2 mps 651 mmHg 27%
    02:00 +26°C° 0 mm 2 mps 651 mmHg 30%
    03:00 +26°C° 0 mm 2 mps 651 mmHg 31%
    04:00 +25°C° 0 mm 2 mps 651 mmHg 33%
    05:00 +25°C° 0 mm 2 mps 652 mmHg 35%
    06:00 +27°C° 0 mm 3 mps 652 mmHg 33%
    07:00 +29°C° 0 mm 3 mps 653 mmHg 31%
    08:00 +32°C° 0 mm 4 mps 654 mmHg 29%
    09:00 +34°C° 0 mm 3 mps 655 mmHg 25%
    10:00 +37°C° 0 mm 3 mps 655 mmHg 21%
    11:00 +39°C° 0 mm 2 mps 655 mmHg 17%
    12:00 +38°C° 0.1 mm 2 mps 654 mmHg 19%
    13:00 +37°C° 0.1 mm 2 mps 653 mmHg 21%
    14:00 +36°C° 0.1 mm 2 mps 652 mmHg 23%
    15:00 +33°C° 1.1 mm 3 mps 651 mmHg 32%
    16:00 +29°C° 1.1 mm 4 mps 650 mmHg 42%
    17:00 +26°C° 1.1 mm 4 mps 650 mmHg 52%
    18:00 +25°C° 2.3 mm 4 mps 651 mmHg 58%
    19:00 +23°C° 2.3 mm 4 mps 651 mmHg 63%
    20:00 +22°C° 2.3 mm 3 mps 652 mmHg 68%
    21:00 +22°C° 3.6 mm 4 mps 652 mmHg 71%
    22:00 +22°C° 3.6 mm 4 mps 653 mmHg 73%
    23:00 +22°C° 3.6 mm 4 mps 653 mmHg 75%

    23 November, Friday

    Time Temperature Precipitation Wind Pressure Humidity
    00:00 +21°C° 3.9 mm 4 mps 653 mmHg 76%
    01:00 +21°C° 3.9 mm 4 mps 653 mmHg 76%
    02:00 +21°C° 3.9 mm 3 mps 653 mmHg 77%
    03:00 +20°C° 1.2 mm 3 mps 653 mmHg 75%
    04:00 +20°C° 1.2 mm 3 mps 653 mmHg 74%
    05:00 +20°C° 1.2 mm 3 mps 653 mmHg 73%
    06:00 +21°C° 0 mm 3 mps 653 mmHg 68%
    07:00 +22°C° 0 mm 3 mps 654 mmHg 64%
    08:00 +24°C° 0 mm 3 mps 655 mmHg 60%
    09:00 +25°C° 0 mm 3 mps 655 mmHg 55%
    10:00 +27°C° 0 mm 3 mps 655 mmHg 50%
    11:00 +28°C° 0 mm 3 mps 655 mmHg 45%
    12:00 +30°C° 0 mm 3 mps 655 mmHg 41%
    13:00 +31°C° 0 mm 2 mps 654 mmHg 37%
    14:00 +32°C° 0 mm 2 mps 654 mmHg 33%
    15:00 +31°C° 0.2 mm 2 mps 654 mmHg 36%
    16:00 +30°C° 0.2 mm 2 mps 653 mmHg 39%
    17:00 +29°C° 0.2 mm 2 mps 653 mmHg 42%
    18:00 +28°C° 0.2 mm 2 mps 653 mmHg 49%
    19:00 +26°C° 0.2 mm 3 mps 653 mmHg 55%
    20:00 +25°C° 0.2 mm 4 mps 653 mmHg 62%
    21:00 +24°C° 0.1 mm 3 mps 653 mmHg 65%
    22:00 +23°C° 0.1 mm 2 mps 653 mmHg 67%
    23:00 +23°C° 0.1 mm 2 mps 653 mmHg 70%
    Show more